COSMOS 2436 (723)

Last updated on June 23, 2019, 3:41 a.m. UTC

1 32395U 07065C   19173.70468760 -.00000025  00000-0  10000-3 0  9991
2 32395  64.7290 278.8550 0015069   2.2414  50.7785  2.13104381 89362
UTC
Height (km)
Latitude
Longitude
Inclination
Orbital Period
UTC large
Height (km)
Speed (km/s)
/
Latitude / Longitude
Inclination (degrees)
Orbital Period (minutes)
Azimuth
Elevation
Range (km)
Doppler Factor
iOS Compass Heading
iOS Angle

Next 30 passes for location: Hong Kong

Rise time Rise Azimuth (degrees) Set time Set Azimuth (degrees) Duration Max altitude (degrees)

No matching passes for this satellites